Time,TemperatureF,DewpointF,PressureIn,WindDirection,WindDirectionDegrees,WindSpeedMPH,WindSpeedGustMPH,Humidity,HourlyPrecipIn,Conditions,Clouds,dailyrainin,SoftwareType,DateUTC
2013-04-20 00:00:00,28.4,16.7,29.65,SSE,157,3.0,14.0,61,0.00,,---,0.13,VWS V14.01,2013-04-20 04:00:00,
2013-04-20 00:01:00,27.0,18.5,29.69,SSE,168,3.0,3.0,70,0.00,,---,0.00,VWS V14.01,2013-04-20 04:01:00,
2013-04-20 00:02:00,27.0,18.5,29.69,SSW,196,2.0,3.0,70,0.00,,---,0.00,VWS V14.01,2013-04-20 04:02:00,
2013-04-20 00:07:00,27.0,18.5,29.69,West,277,4.0,13.0,70,0.00,,---,0.00,VWS V14.01,2013-04-20 04:07:00,
2013-04-20 00:12:00,27.0,18.2,29.69,West,275,2.0,13.0,69,0.00,,---,0.00,VWS V14.01,2013-04-20 04:12:00,
2013-04-20 00:17:00,26.9,19.1,29.69,South,169,14.0,14.0,72,0.00,,---,0.00,VWS V14.01,2013-04-20 04:17:00,
2013-04-20 00:22:00,26.7,18.9,29.69,West,270,6.0,14.0,72,0.00,,---,0.00,VWS V14.01,2013-04-20 04:22:00,
2013-04-20 00:27:00,26.7,18.6,29.69,WSW,247,0.0,20.0,71,0.00,,---,0.00,VWS V14.01,2013-04-20 04:27:00,
2013-04-20 00:30:00,27.9,17.7,29.67,NNW,343,1.0,17.0,65,0.00,,---,0.13,VWS V14.01,2013-04-20 04:30:00,
2013-04-20 00:32:00,26.6,18.8,29.69,SSW,213,7.0,10.0,72,0.00,,---,0.00,VWS V14.01,2013-04-20 04:32:00,
2013-04-20 00:37:00,26.6,19.1,29.69,SSW,203,4.0,15.0,73,0.00,,---,0.00,VWS V14.01,2013-04-20 04:37:00,
2013-04-20 00:42:00,26.4,18.9,29.69,West,274,8.0,15.0,73,0.00,,---,0.00,VWS V14.01,2013-04-20 04:42:00,
2013-04-20 00:47:00,26.6,18.5,29.70,West,260,5.0,21.0,71,0.00,,---,0.00,VWS V14.01,2013-04-20 04:47:00,
2013-04-20 00:52:00,26.9,18.1,29.70,North,354,11.0,21.0,69,0.00,,---,0.00,VWS V14.01,2013-04-20 04:52:00,
2013-04-20 00:57:00,26.9,17.8,29.70,North,6,2.0,21.0,68,0.00,,---,0.00,VWS V14.01,2013-04-20 04:57:00,
2013-04-20 01:00:00,27.0,18.5,29.69,NNW,329,2.0,12.0,70,0.00,,---,0.13,VWS V14.01,2013-04-20 05:00:00,
2013-04-20 01:02:00,26.7,18.2,29.70,NW,323,5.0,7.0,70,0.00,,---,0.00,VWS V14.01,2013-04-20 05:02:00,
2013-04-20 01:07:00,26.6,18.8,29.70,North,0,7.0,12.0,72,0.00,,---,0.00,VWS V14.01,2013-04-20 05:07:00,
2013-04-20 01:12:00,26.3,18.8,29.70,ENE,71,3.0,12.0,73,0.00,,---,0.00,VWS V14.01,2013-04-20 05:12:00,
2013-04-20 01:17:00,26.1,19.3,29.71,ENE,69,1.0,12.0,75,0.00,,---,0.00,VWS V14.01,2013-04-20 05:17:00,
2013-04-20 01:22:00,26.1,18.3,29.71,WNW,292,2.0,13.0,72,0.00,,---,0.00,VWS V14.01,2013-04-20 05:22:00,
2013-04-20 01:27:00,26.0,18.2,29.71,West,261,18.0,18.0,72,0.00,,---,0.00,VWS V14.01,2013-04-20 05:27:00,
2013-04-20 01:30:00,26.7,19.2,29.69,West,271,0.0,20.0,73,0.00,,---,0.00,VWS V14.01,2013-04-20 05:30:00,
2013-04-20 01:32:00,25.0,19.4,29.73,NNW,340,8.0,11.0,79,0.00,,---,0.00,VWS V14.01,2013-04-20 05:32:00,
2013-04-20 01:37:00,24.4,19.7,29.73,NW,318,7.0,14.0,82,0.00,,---,0.00,VWS V14.01,2013-04-20 05:37:00,
2013-04-20 01:42:00,24.2,19.8,29.73,NW,316,2.0,14.0,83,0.00,,---,0.00,VWS V14.01,2013-04-20 05:42:00,
2013-04-20 01:47:00,24.1,20.2,29.74,WSW,250,5.0,14.0,85,0.00,,---,0.00,VWS V14.01,2013-04-20 05:47:00,
2013-04-20 01:52:00,23.9,20.1,29.74,NNW,329,3.0,14.0,85,0.00,,---,0.00,VWS V14.01,2013-04-20 05:52:00,
2013-04-20 01:57:00,24.1,20.0,29.74,WNW,284,5.0,17.0,84,0.00,,---,0.00,VWS V14.01,2013-04-20 05:57:00,
2013-04-20 02:00:00,26.9,18.4,29.70,SW,236,2.0,21.0,70,0.00,,---,0.00,VWS V14.01,2013-04-20 06:00:00,
2013-04-20 02:02:00,24.2,20.1,29.74,West,267,0.0,10.0,84,0.00,,---,0.00,VWS V14.01,2013-04-20 06:02:00,
2013-04-20 02:07:00,24.2,20.1,29.74,West,278,6.0,11.0,84,0.00,,---,0.00,VWS V14.01,2013-04-20 06:07:00,
2013-04-20 02:13:00,24.2,19.8,29.74,South,186,2.0,16.0,83,0.00,,---,0.00,VWS V14.01,2013-04-20 06:13:00,
2013-04-20 02:18:00,24.4,20.0,29.75,NNW,332,6.0,16.0,83,0.00,,---,0.00,VWS V14.01,2013-04-20 06:18:00,
2013-04-20 02:23:00,24.4,19.7,29.75,WNW,285,10.0,16.0,82,0.00,,---,0.00,VWS V14.01,2013-04-20 06:23:00,
2013-04-20 02:28:00,24.2,19.2,29.75,SSW,209,3.0,16.0,81,0.00,,---,0.00,VWS V14.01,2013-04-20 06:28:00,
2013-04-20 02:30:00,25.6,19.4,29.73,North,352,11.0,18.0,77,0.00,,---,0.00,VWS V14.01,2013-04-20 06:30:00,
2013-04-20 02:33:00,24.2,18.6,29.75,North,0,8.0,16.0,79,0.00,,---,0.00,VWS V14.01,2013-04-20 06:33:00,
2013-04-20 02:38:00,24.2,18.6,29.75,West,261,12.0,16.0,79,0.00,,---,0.00,VWS V14.01,2013-04-20 06:38:00,
2013-04-20 02:43:00,24.2,18.6,29.75,NW,325,4.0,16.0,79,0.00,,---,0.00,VWS V14.01,2013-04-20 06:43:00,
2013-04-20 02:48:00,24.2,18.6,29.76,NW,318,1.0,16.0,79,0.00,,---,0.00,VWS V14.01,2013-04-20 06:48:00,
2013-04-20 02:53:00,24.4,18.8,29.76,SE,144,3.0,16.0,79,0.00,,---,0.00,VWS V14.01,2013-04-20 06:53:00,
2013-04-20 02:58:00,24.5,19.5,29.76,West,274,6.0,16.0,81,0.00,,---,0.00,VWS V14.01,2013-04-20 06:58:00,
2013-04-20 03:00:00,24.1,20.0,29.74,West,261,3.0,17.0,84,0.00,,---,0.00,VWS V14.01,2013-04-20 07:00:00,
2013-04-20 03:03:00,24.5,19.8,29.76,North,352,6.0,6.0,82,0.00,,---,0.00,VWS V14.01,2013-04-20 07:03:00,
2013-04-20 03:08:00,24.7,19.7,29.76,NNW,337,5.0,7.0,81,0.00,,---,0.00,VWS V14.01,2013-04-20 07:08:00,
2013-04-20 03:13:00,24.7,19.4,29.76,NW,311,6.0,14.0,80,0.00,,---,0.00,VWS V14.01,2013-04-20 07:13:00,
2013-04-20 03:18:00,24.5,19.2,29.77,NW,308,7.0,18.0,80,0.00,,---,0.00,VWS V14.01,2013-04-20 07:18:00,
2013-04-20 03:23:00,24.4,17.9,29.77,WNW,302,10.0,18.0,76,0.00,,---,0.00,VWS V14.01,2013-04-20 07:23:00,
2013-04-20 03:28:00,24.2,17.4,29.77,NW,315,4.0,18.0,75,0.00,,---,0.00,VWS V14.01,2013-04-20 07:28:00,
2013-04-20 03:30:00,24.2,19.2,29.75,North,10,12.0,16.0,81,0.00,,---,0.00,VWS V14.01,2013-04-20 07:30:00,
2013-04-20 03:33:00,24.2,17.7,29.79,West,268,8.0,16.0,76,0.00,,---,0.00,VWS V14.01,2013-04-20 07:33:00,
2013-04-20 03:38:00,24.1,17.6,29.79,North,356,6.0,16.0,76,0.00,,---,0.00,VWS V14.01,2013-04-20 07:38:00,
2013-04-20 03:43:00,24.1,17.6,29.79,North,350,6.0,19.0,76,0.00,,---,0.00,VWS V14.01,2013-04-20 07:43:00,
2013-04-20 03:48:00,24.1,16.1,29.80,North,7,4.0,19.0,71,0.00,,---,0.00,VWS V14.01,2013-04-20 07:48:00,
2013-04-20 03:53:00,24.4,15.4,29.80,NW,308,11.0,19.0,68,0.00,,---,0.00,VWS V14.01,2013-04-20 07:53:00,
2013-04-20 03:58:00,24.4,15.0,29.80,WNW,294,9.0,19.0,67,0.00,,---,0.00,VWS V14.01,2013-04-20 07:58:00,
2013-04-20 04:00:00,24.5,19.8,29.76,West,260,0.0,16.0,82,0.00,,---,0.00,VWS V14.01,2013-04-20 08:00:00,
2013-04-20 04:03:00,24.5,15.1,29.80,WNW,292,10.0,16.0,67,0.00,,---,0.00,VWS V14.01,2013-04-20 08:03:00,
2013-04-20 04:08:00,24.5,15.1,29.80,NNW,339,11.0,16.0,67,0.00,,---,0.00,VWS V14.01,2013-04-20 08:08:00,
2013-04-20 04:13:00,24.5,14.4,29.80,West,270,17.0,25.0,65,0.00,,---,0.00,VWS V14.01,2013-04-20 08:13:00,
2013-04-20 04:18:00,24.5,14.4,29.81,WSW,254,10.0,25.0,65,0.00,,---,0.00,VWS V14.01,2013-04-20 08:18:00,
2013-04-20 04:23:00,24.5,14.4,29.81,NNE,14,10.0,25.0,65,0.00,,---,0.00,VWS V14.01,2013-04-20 08:23:00,
2013-04-20 04:28:00,24.5,14.4,29.81,NW,312,9.0,25.0,65,0.00,,---,0.00,VWS V14.01,2013-04-20 08:28:00,
2013-04-20 04:30:00,24.2,17.7,29.79,North,357,7.0,18.0,76,0.00,,---,0.00,VWS V14.01,2013-04-20 08:30:00,
2013-04-20 04:33:00,24.5,14.4,29.83,North,0,6.0,12.0,65,0.00,,---,0.00,VWS V14.01,2013-04-20 08:33:00,
2013-04-20 04:38:00,24.5,14.8,29.83,NNW,343,3.0,12.0,66,0.00,,---,0.00,VWS V14.01,2013-04-20 08:38:00,
2013-04-20 04:43:00,24.5,15.1,29.83,WNW,288,3.0,13.0,67,0.00,,---,0.00,VWS V14.01,2013-04-20 08:43:00,
2013-04-20 04:48:00,24.5,15.1,29.84,NW,313,6.0,13.0,67,0.00,,---,0.00,VWS V14.01,2013-04-20 08:48:00,
2013-04-20 04:54:00,24.7,15.3,29.84,SW,223,1.0,13.0,67,0.00,,---,0.00,VWS V14.01,2013-04-20 08:54:00,
2013-04-20 04:59:00,24.8,15.1,29.84,North,0,8.0,17.0,66,0.00,,---,0.00,VWS V14.01,2013-04-20 08:59:00,
2013-04-20 05:00:00,24.5,15.1,29.80,NNW,347,6.0,19.0,67,0.00,,---,0.00,VWS V14.01,2013-04-20 09:00:00,
2013-04-20 05:04:00,24.7,15.3,29.85,North,0,2.0,14.0,67,0.00,,---,0.00,VWS V14.01,2013-04-20 09:04:00,
2013-04-20 05:09:00,24.7,15.3,29.85,North,0,7.0,17.0,67,0.00,,---,0.00,VWS V14.01,2013-04-20 09:09:00,
2013-04-20 05:14:00,24.7,15.0,29.85,North,352,5.0,17.0,66,0.00,,---,0.00,VWS V14.01,2013-04-20 09:14:00,
2013-04-20 05:19:00,24.7,15.3,29.86,NNW,347,8.0,17.0,67,0.00,,---,0.00,VWS V14.01,2013-04-20 09:19:00,
2013-04-20 05:24:00,24.7,16.0,29.86,NW,311,12.0,17.0,69,0.00,,---,0.00,VWS V14.01,2013-04-20 09:24:00,
2013-04-20 05:29:00,24.7,15.0,29.86,NNW,336,3.0,17.0,66,0.00,,---,0.00,VWS V14.01,2013-04-20 09:29:00,
2013-04-20 05:30:00,24.5,14.1,29.83,NW,313,6.0,25.0,64,0.00,,---,0.00,VWS V14.01,2013-04-20 09:30:00,
2013-04-20 05:34:00,24.7,15.0,29.87,NNW,337,6.0,14.0,66,0.00,,---,0.00,VWS V14.01,2013-04-20 09:34:00,
2013-04-20 05:39:00,24.7,15.0,29.87,SW,230,2.0,14.0,66,0.00,,---,0.00,VWS V14.01,2013-04-20 09:39:00,
2013-04-20 05:44:00,24.7,15.3,29.87,North,352,12.0,14.0,67,0.00,,---,0.00,VWS V14.01,2013-04-20 09:44:00,
2013-04-20 05:49:00,24.7,15.0,29.88,SSW,202,5.0,14.0,66,0.00,,---,0.00,VWS V14.01,2013-04-20 09:49:00,
2013-04-20 05:54:00,24.8,15.4,29.88,NW,319,10.0,16.0,67,0.00,,---,0.00,VWS V14.01,2013-04-20 09:54:00,
2013-04-20 05:59:00,24.8,14.4,29.88,NNW,339,11.0,17.0,64,0.00,,---,0.00,VWS V14.01,2013-04-20 09:59:00,
2013-04-20 06:00:00,24.8,15.1,29.85,NW,322,11.0,17.0,66,0.00,,---,0.00,VWS V14.01,2013-04-20 10:00:00,
2013-04-20 06:04:00,24.8,15.4,29.89,North,349,8.0,13.0,67,0.00,,---,0.00,VWS V14.01,2013-04-20 10:04:00,
2013-04-20 06:09:00,24.7,14.6,29.89,NW,326,10.0,14.0,65,0.00,,---,0.00,VWS V14.01,2013-04-20 10:09:00,
2013-04-20 06:14:00,24.7,15.0,29.89,WNW,295,5.0,16.0,66,0.00,,---,0.00,VWS V14.01,2013-04-20 10:14:00,
2013-04-20 06:19:00,24.7,15.0,29.90,NNW,346,10.0,16.0,66,0.00,,---,0.00,VWS V14.01,2013-04-20 10:19:00,
2013-04-20 06:24:00,24.7,15.0,29.90,NW,312,7.0,16.0,66,0.00,,---,0.00,VWS V14.01,2013-04-20 10:24:00,
2013-04-20 06:29:00,24.7,15.3,29.91,NNW,328,9.0,16.0,67,0.00,,---,0.00,VWS V14.01,2013-04-20 10:29:00,
2013-04-20 06:30:00,24.7,14.6,29.87,NNW,332,3.0,17.0,65,0.00,,---,0.00,VWS V14.01,2013-04-20 10:30:00,
2013-04-20 06:34:00,24.5,15.8,29.91,NW,323,2.0,12.0,69,0.00,,---,0.00,VWS V14.01,2013-04-20 10:34:00,
2013-04-20 06:39:00,24.5,16.1,29.91,North,359,6.0,19.0,70,0.00,,---,0.00,VWS V14.01,2013-04-20 10:39:00,
2013-04-20 06:44:00,24.4,16.4,29.93,North,352,5.0,19.0,71,0.00,,---,0.00,VWS V14.01,2013-04-20 10:44:00,
2013-04-20 06:49:00,24.4,16.4,29.93,North,0,6.0,19.0,71,0.00,,---,0.00,VWS V14.01,2013-04-20 10:49:00,
2013-04-20 06:54:00,24.4,16.7,29.93,NW,309,8.0,19.0,72,0.00,,---,0.00,VWS V14.01,2013-04-20 10:54:00,
2013-04-20 06:59:00,24.5,16.8,29.93,North,356,5.0,19.0,72,0.00,,---,0.00,VWS V14.01,2013-04-20 10:59:00,
2013-04-20 07:00:00,24.8,14.7,29.89,NNW,340,2.0,17.0,65,0.00,,---,0.00,VWS V14.01,2013-04-20 11:00:00,
2013-04-20 07:04:00,24.5,16.8,29.93,NW,323,4.0,7.0,72,0.00,,---,0.00,VWS V14.01,2013-04-20 11:04:00,
2013-04-20 07:09:00,24.7,16.6,29.93,West,272,3.0,10.0,71,0.00,,---,0.00,VWS V14.01,2013-04-20 11:09:00,
2013-04-20 07:15:00,24.8,16.8,29.95,North,0,3.0,13.0,71,0.00,,---,0.00,VWS V14.01,2013-04-20 11:15:00,
2013-04-20 07:20:00,24.8,16.4,29.95,NNW,342,2.0,13.0,70,0.00,,---,0.00,VWS V14.01,2013-04-20 11:20:00,
2013-04-20 07:25:00,25.0,16.9,29.95,WNW,285,1.0,13.0,71,0.00,,---,0.00,VWS V14.01,2013-04-20 11:25:00,
2013-04-20 07:30:00,25.1,17.0,29.95,NW,318,4.0,13.0,71,0.00,,---,0.00,VWS V14.01,2013-04-20 11:30:00,
2013-04-20 07:35:00,25.1,16.4,29.95,NNW,330,5.0,12.0,69,0.00,,---,0.00,VWS V14.01,2013-04-20 11:35:00,
2013-04-20 07:40:00,25.1,16.7,29.95,North,0,2.0,14.0,70,0.00,,---,0.00,VWS V14.01,2013-04-20 11:40:00,
2013-04-20 07:45:00,25.1,17.0,29.96,West,277,5.0,14.0,71,0.00,,---,0.00,VWS V14.01,2013-04-20 11:45:00,
2013-04-20 07:50:00,25.3,16.2,29.96,NW,304,12.0,17.0,68,0.00,,---,0.00,VWS V14.01,2013-04-20 11:50:00,
2013-04-20 07:55:00,25.4,16.3,29.96,WNW,291,2.0,17.0,68,0.00,,---,0.00,VWS V14.01,2013-04-20 11:55:00,
2013-04-20 08:00:00,25.6,16.2,29.97,NNW,339,7.0,17.0,67,0.00,,---,0.00,VWS V14.01,2013-04-20 12:00:00,
2013-04-20 08:05:00,25.8,16.0,29.97,NW,311,10.0,12.0,66,0.00,,---,0.00,VWS V14.01,2013-04-20 12:05:00,
2013-04-20 08:10:00,26.0,15.9,29.97,NW,322,7.0,12.0,65,0.00,,---,0.00,VWS V14.01,2013-04-20 12:10:00,
2013-04-20 08:15:00,26.4,16.2,29.99,North,0,5.0,12.0,65,0.00,,---,0.00,VWS V14.01,2013-04-20 12:15:00,
2013-04-20 08:20:00,26.6,16.4,29.99,NNW,332,5.0,12.0,65,0.00,,---,0.00,VWS V14.01,2013-04-20 12:20:00,
2013-04-20 08:25:00,26.9,16.4,29.99,North,11,5.0,16.0,64,0.00,,---,0.00,VWS V14.01,2013-04-20 12:25:00,
2013-04-20 08:30:00,26.9,16.4,30.00,North,1,4.0,17.0,64,0.00,,---,0.00,VWS V14.01,2013-04-20 12:30:00,
2013-04-20 08:35:00,27.0,17.2,30.00,NNW,333,6.0,8.0,66,0.00,,---,0.00,VWS V14.01,2013-04-20 12:35:00,
2013-04-20 08:40:00,27.0,16.8,30.00,NW,320,4.0,13.0,65,0.00,,---,0.00,VWS V14.01,2013-04-20 12:40:00,
2013-04-20 08:45:00,27.0,16.8,30.00,WNW,298,13.0,13.0,65,0.00,,---,0.00,VWS V14.01,2013-04-20 12:45:00,
2013-04-20 08:50:00,27.0,16.5,30.00,WNW,294,7.0,15.0,64,0.00,,---,0.00,VWS V14.01,2013-04-20 12:50:00,
2013-04-20 08:55:00,26.7,16.2,30.00,NNW,340,7.0,15.0,64,0.00,,---,0.00,VWS V14.01,2013-04-20 12:55:00,
2013-04-20 09:00:00,26.4,16.9,30.01,North,356,3.0,15.0,67,0.00,,---,0.00,VWS V14.01,2013-04-20 13:00:00,
2013-04-20 09:05:00,26.3,18.5,30.01,NW,309,10.0,10.0,72,0.00,,---,0.00,VWS V14.01,2013-04-20 13:05:00,
2013-04-20 09:10:00,26.0,19.8,30.01,North,349,3.0,10.0,77,0.00,,---,0.00,VWS V14.01,2013-04-20 13:10:00,
2013-04-20 09:15:00,25.8,20.5,30.03,SSE,158,1.0,10.0,80,0.00,,---,0.00,VWS V14.01,2013-04-20 13:15:00,
2013-04-20 09:20:00,25.7,21.0,30.03,West,275,2.0,10.0,82,0.00,,---,0.00,VWS V14.01,2013-04-20 13:20:00,
2013-04-20 09:25:00,25.6,21.2,30.03,NW,326,2.0,10.0,83,0.00,,---,0.00,VWS V14.01,2013-04-20 13:25:00,
2013-04-20 09:30:00,25.6,21.5,30.04,NNW,328,7.0,7.0,84,0.00,,---,0.00,VWS V14.01,2013-04-20 13:30:00,
2013-04-20 09:35:00,25.6,20.9,30.04,West,274,1.0,10.0,82,0.00,,---,0.00,VWS V14.01,2013-04-20 13:35:00,
2013-04-20 09:40:00,25.4,21.0,30.04,NW,305,2.0,10.0,83,0.00,,---,0.00,VWS V14.01,2013-04-20 13:40:00,
2013-04-20 09:46:00,25.1,21.2,30.05,WNW,296,1.0,10.0,85,0.00,,---,0.00,VWS V14.01,2013-04-20 13:46:00,
2013-04-20 09:51:00,25.0,21.7,30.05,North,350,6.0,10.0,87,0.00,,---,0.00,VWS V14.01,2013-04-20 13:51:00,
2013-04-20 09:56:00,25.0,22.0,30.05,North,350,4.0,10.0,88,0.00,,---,0.00,VWS V14.01,2013-04-20 13:56:00,
2013-04-20 10:00:00,26.4,16.9,30.01,North,356,3.0,15.0,67,0.00,,---,0.00,VWS V14.01,2013-04-20 14:00:00,
2013-04-20 10:01:00,25.3,22.2,30.06,NW,306,1.0,3.0,88,0.00,,---,0.00,VWS V14.01,2013-04-20 14:01:00,
2013-04-20 10:06:00,25.6,22.5,30.06,West,260,0.0,8.0,88,0.00,,---,0.00,VWS V14.01,2013-04-20 14:06:00,
2013-04-20 10:11:00,25.6,22.3,30.06,ESE,106,2.0,8.0,87,0.00,,---,0.00,VWS V14.01,2013-04-20 14:11:00,
2013-04-20 10:16:00,25.6,22.3,30.07,NE,47,0.0,8.0,87,0.00,,---,0.00,VWS V14.01,2013-04-20 14:16:00,
2013-04-20 10:21:00,25.7,22.1,30.07,West,264,4.0,10.0,86,0.00,,---,0.00,VWS V14.01,2013-04-20 14:21:00,
2013-04-20 10:26:00,26.3,22.4,30.07,NW,326,1.0,10.0,85,0.00,,---,0.00,VWS V14.01,2013-04-20 14:26:00,
2013-04-20 10:30:00,25.7,21.5,30.04,WSW,250,5.0,11.0,84,0.00,,---,0.00,VWS V14.01,2013-04-20 14:30:00,
2013-04-20 10:31:00,26.7,22.2,30.08,North,353,10.0,10.0,83,0.00,,---,0.00,VWS V14.01,2013-04-20 14:31:00,
2013-04-20 10:36:00,26.6,21.9,30.08,NW,309,11.0,11.0,82,0.00,,---,0.00,VWS V14.01,2013-04-20 14:36:00,
2013-04-20 10:41:00,26.3,22.1,30.08,NW,308,1.0,11.0,84,0.00,,---,0.00,VWS V14.01,2013-04-20 14:41:00,
2013-04-20 10:46:00,26.4,22.8,30.10,NW,316,5.0,11.0,86,0.00,,---,0.00,VWS V14.01,2013-04-20 14:46:00,
2013-04-20 10:51:00,26.6,23.0,30.10,NNE,17,2.0,11.0,86,0.00,,---,0.00,VWS V14.01,2013-04-20 14:51:00,
2013-04-20 10:56:00,26.7,22.5,30.10,WNW,284,1.0,11.0,84,0.00,,---,0.00,VWS V14.01,2013-04-20 14:56:00,
2013-04-20 11:00:00,25.3,22.2,30.06,WNW,302,3.0,10.0,88,0.00,,---,0.00,VWS V14.01,2013-04-20 15:00:00,
2013-04-20 11:01:00,26.7,22.5,30.11,NW,306,0.0,2.0,84,0.00,,---,0.00,VWS V14.01,2013-04-20 15:01:00,
2013-04-20 11:06:00,26.7,22.5,30.11,NNW,340,2.0,8.0,84,0.00,,---,0.00,VWS V14.01,2013-04-20 15:06:00,
2013-04-20 11:11:00,27.2,23.0,30.11,North,349,6.0,8.0,84,0.00,,---,0.00,VWS V14.01,2013-04-20 15:11:00,
2013-04-20 11:16:00,27.2,22.4,30.12,West,275,2.0,9.0,82,0.00,,---,0.00,VWS V14.01,2013-04-20 15:16:00,
2013-04-20 11:21:00,27.5,22.5,30.12,WNW,302,3.0,9.0,81,0.00,,---,0.00,VWS V14.01,2013-04-20 15:21:00,
2013-04-20 11:26:00,27.3,21.7,30.12,North,0,3.0,9.0,79,0.00,,---,0.00,VWS V14.01,2013-04-20 15:26:00,
2013-04-20 11:30:00,26.7,22.2,30.08,NW,308,1.0,10.0,83,0.00,,---,0.00,VWS V14.01,2013-04-20 15:30:00,
2013-04-20 11:31:00,27.5,21.9,30.14,WSW,258,1.0,3.0,79,0.00,,---,0.00,VWS V14.01,2013-04-20 15:31:00,
2013-04-20 11:36:00,28.1,22.1,30.14,NE,54,2.0,6.0,78,0.00,,---,0.00,VWS V14.01,2013-04-20 15:36:00,
2013-04-20 11:41:00,28.2,21.6,30.14,NW,318,3.0,8.0,76,0.00,,---,0.00,VWS V14.01,2013-04-20 15:41:00,
2013-04-20 11:46:00,27.9,21.3,30.15,WNW,288,0.0,11.0,76,0.00,,---,0.00,VWS V14.01,2013-04-20 15:46:00,
2013-04-20 11:51:00,27.8,21.2,30.15,NW,316,5.0,11.0,76,0.01,,---,0.01,VWS V14.01,2013-04-20 15:51:00,
2013-04-20 11:56:00,27.8,21.2,30.15,WSW,248,6.0,13.0,76,0.01,,---,0.01,VWS V14.01,2013-04-20 15:56:00,
2013-04-20 12:00:00,26.7,22.5,30.11,NW,318,2.0,11.0,84,0.00,,---,0.00,VWS V14.01,2013-04-20 16:00:00,
2013-04-20 12:01:00,29.0,22.1,30.16,ENE,75,4.0,5.0,75,0.01,,---,0.01,VWS V14.01,2013-04-20 16:01:00,
2013-04-20 12:06:00,29.5,21.6,30.16,NNW,333,12.0,17.0,72,0.01,,---,0.01,VWS V14.01,2013-04-20 16:06:00,
2013-04-20 12:11:00,28.8,20.6,30.16,WNW,284,1.0,17.0,71,0.02,,---,0.02,VWS V14.01,2013-04-20 16:11:00,
2013-04-20 12:16:00,28.7,20.5,30.17,NW,308,8.0,17.0,71,0.02,,---,0.02,VWS V14.01,2013-04-20 16:16:00,
2013-04-20 12:21:00,29.4,20.8,30.17,SW,224,2.0,17.0,70,0.02,,---,0.02,VWS V14.01,2013-04-20 16:21:00,
2013-04-20 12:26:00,29.7,20.1,30.17,ENE,66,2.0,17.0,67,0.03,,---,0.03,VWS V14.01,2013-04-20 16:26:00,
2013-04-20 12:30:00,27.3,21.7,30.14,WNW,292,2.0,9.0,79,0.00,,---,0.00,VWS V14.01,2013-04-20 16:30:00,
2013-04-20 12:31:00,30.0,21.1,30.17,WNW,294,2.0,3.0,69,0.03,,---,0.03,VWS V14.01,2013-04-20 16:31:00,
2013-04-20 12:36:00,31.0,21.0,30.17,North,349,10.0,13.0,66,0.03,,---,0.03,VWS V14.01,2013-04-20 16:36:00,
2013-04-20 12:41:00,30.3,19.6,30.17,West,278,1.0,13.0,64,0.04,,---,0.04,VWS V14.01,2013-04-20 16:41:00,
2013-04-20 12:46:00,30.3,20.7,30.18,NW,320,2.0,13.0,67,0.04,,---,0.04,VWS V14.01,2013-04-20 16:46:00,
2013-04-20 12:51:00,29.8,19.1,30.18,NW,306,0.0,13.0,64,0.04,,---,0.04,VWS V14.01,2013-04-20 16:51:00,
2013-04-20 12:57:00,29.3,19.7,30.18,North,359,3.0,13.0,67,0.04,,---,0.04,VWS V14.01,2013-04-20 16:57:00,
2013-04-20 13:00:00,28.8,21.9,30.16,SW,216,1.0,13.0,75,0.01,,---,0.01,VWS V14.01,2013-04-20 17:00:00,
2013-04-20 13:02:00,30.0,20.7,30.19,North,353,8.0,11.0,68,0.03,,---,0.04,VWS V14.01,2013-04-20 17:02:00,
2013-04-20 13:07:00,30.1,19.4,30.19,SW,234,0.0,11.0,64,0.03,,---,0.04,VWS V14.01,2013-04-20 17:07:00,
2013-04-20 13:12:00,30.3,20.3,30.19,West,272,7.0,11.0,66,0.03,,---,0.04,VWS V14.01,2013-04-20 17:12:00,
2013-04-20 13:17:00,30.7,20.7,30.20,NNE,21,3.0,14.0,66,0.03,,---,0.04,VWS V14.01,2013-04-20 17:17:00,
2013-04-20 13:22:00,31.3,19.8,30.20,West,270,2.0,14.0,62,0.03,,---,0.04,VWS V14.01,2013-04-20 17:22:00,
2013-04-20 13:27:00,31.5,19.6,30.20,SW,215,2.0,14.0,61,0.03,,---,0.04,VWS V14.01,2013-04-20 17:27:00,
2013-04-20 13:30:00,29.8,20.5,30.17,North,7,0.0,17.0,68,0.03,,---,0.03,VWS V14.01,2013-04-20 17:30:00,
2013-04-20 13:32:00,31.3,20.9,30.20,WSW,250,0.0,6.0,65,0.01,,---,0.04,VWS V14.01,2013-04-20 17:32:00,
2013-04-20 13:37:00,31.3,19.0,30.20,West,274,3.0,10.0,60,0.01,,---,0.04,VWS V14.01,2013-04-20 17:37:00,
2013-04-20 13:42:00,31.3,20.2,30.20,NW,322,6.0,10.0,63,0.01,,---,0.04,VWS V14.01,2013-04-20 17:42:00,
2013-04-20 13:47:00,31.6,20.5,30.21,West,281,1.0,10.0,63,0.01,,---,0.04,VWS V14.01,2013-04-20 17:47:00,
2013-04-20 13:52:00,31.5,18.8,30.21,NNE,13,3.0,10.0,59,0.01,,---,0.04,VWS V14.01,2013-04-20 17:52:00,
2013-04-20 13:57:00,31.0,19.1,30.21,NW,309,7.0,10.0,61,0.01,,---,0.04,VWS V14.01,2013-04-20 17:57:00,
2013-04-20 14:00:00,29.5,20.3,30.19,NW,320,0.0,13.0,68,0.04,,---,0.04,VWS V14.01,2013-04-20 18:00:00,
2013-04-20 14:02:00,30.4,20.8,30.22,NW,315,1.0,12.0,67,0.00,,---,0.04,VWS V14.01,2013-04-20 18:02:00,
2013-04-20 14:07:00,30.6,21.0,30.22,WSW,244,0.0,12.0,67,0.00,,---,0.04,VWS V14.01,2013-04-20 18:07:00,
2013-04-20 14:12:00,30.6,20.2,30.22,North,3,7.0,12.0,65,0.00,,---,0.04,VWS V14.01,2013-04-20 18:12:00,
2013-04-20 14:17:00,30.9,20.9,30.23,WNW,294,0.0,16.0,66,0.00,,---,0.04,VWS V14.01,2013-04-20 18:17:00,
2013-04-20 14:22:00,31.0,21.0,30.23,NNW,329,8.0,16.0,66,0.00,,---,0.04,VWS V14.01,2013-04-20 18:22:00,
2013-04-20 14:27:00,30.6,22.7,30.23,WSW,256,1.0,16.0,72,0.00,,---,0.04,VWS V14.01,2013-04-20 18:27:00,
2013-04-20 14:30:00,31.3,20.2,30.20,West,265,3.0,14.0,63,0.03,,---,0.04,VWS V14.01,2013-04-20 18:30:00,
2013-04-20 14:32:00,29.8,21.9,30.24,WSW,248,6.0,8.0,72,0.00,,---,0.04,VWS V14.01,2013-04-20 18:32:00,
2013-04-20 14:37:00,29.5,21.6,30.24,South,182,3.0,8.0,72,0.00,,---,0.04,VWS V14.01,2013-04-20 18:37:00,
2013-04-20 14:42:00,29.5,21.6,30.24,WSW,247,7.0,8.0,72,0.00,,---,0.04,VWS V14.01,2013-04-20 18:42:00,
2013-04-20 14:47:00,30.0,22.4,30.25,WSW,254,0.0,12.0,73,0.00,,---,0.04,VWS V14.01,2013-04-20 18:47:00,
2013-04-20 14:52:00,30.4,21.5,30.25,SSW,205,8.0,12.0,69,0.00,,---,0.04,VWS V14.01,2013-04-20 18:52:00,
2013-04-20 14:57:00,31.5,21.5,30.25,WSW,239,1.0,12.0,66,0.00,,---,0.04,VWS V14.01,2013-04-20 18:57:00,
2013-04-20 15:00:00,30.6,21.0,30.22,WNW,285,10.0,11.0,67,0.01,,---,0.04,VWS V14.01,2013-04-20 19:00:00,
2013-04-20 15:02:00,32.1,20.6,30.25,SSE,150,0.0,5.0,62,0.00,,---,0.04,VWS V14.01,2013-04-20 19:02:00,
2013-04-20 15:07:00,31.6,20.1,30.25,ENE,58,1.0,11.0,62,0.00,,---,0.04,VWS V14.01,2013-04-20 19:07:00,
2013-04-20 15:12:00,30.9,20.2,30.25,SSW,192,6.0,12.0,64,0.00,,---,0.04,VWS V14.01,2013-04-20 19:12:00,
2013-04-20 15:17:00,31.2,20.8,30.26,South,179,2.0,12.0,65,0.00,,---,0.04,VWS V14.01,2013-04-20 19:17:00,
2013-04-20 15:22:00,31.8,21.8,30.26,West,261,10.0,12.0,66,0.00,,---,0.04,VWS V14.01,2013-04-20 19:22:00,
2013-04-20 15:27:00,31.6,21.6,30.26,WNW,285,0.0,12.0,66,0.00,,---,0.04,VWS V14.01,2013-04-20 19:27:00,
2013-04-20 15:30:00,30.3,22.4,30.24,North,350,7.0,16.0,72,0.00,,---,0.04,VWS V14.01,2013-04-20 19:30:00,
2013-04-20 15:32:00,31.6,20.5,30.27,South,188,1.0,7.0,63,0.00,,---,0.04,VWS V14.01,2013-04-20 19:32:00,
2013-04-20 15:37:00,31.5,18.8,30.27,WSW,258,4.0,10.0,59,0.00,,---,0.04,VWS V14.01,2013-04-20 19:37:00,
2013-04-20 15:42:00,31.8,18.7,30.27,North,353,6.0,10.0,58,0.00,,---,0.04,VWS V14.01,2013-04-20 19:42:00,
2013-04-20 15:48:00,31.5,17.2,30.28,NNW,343,11.0,11.0,55,0.00,,---,0.04,VWS V14.01,2013-04-20 19:48:00,
2013-04-20 15:53:00,31.0,17.2,30.28,SW,226,6.0,11.0,56,0.00,,---,0.04,VWS V14.01,2013-04-20 19:53:00,
2013-04-20 15:58:00,31.5,17.6,30.28,WNW,298,1.0,11.0,56,0.00,,---,0.04,VWS V14.01,2013-04-20 19:58:00,
2013-04-20 16:00:00,31.9,20.4,30.25,SW,217,2.0,12.0,62,0.00,,---,0.04,VWS V14.01,2013-04-20 20:00:00,
2013-04-20 16:03:00,31.5,17.6,30.29,NW,308,6.0,10.0,56,0.00,,---,0.04,VWS V14.01,2013-04-20 20:03:00,
2013-04-20 16:08:00,31.0,15.4,30.29,West,268,1.0,13.0,52,0.00,,---,0.04,VWS V14.01,2013-04-20 20:08:00,
2013-04-20 16:13:00,30.9,15.4,30.29,NW,320,4.0,13.0,52,0.00,,---,0.04,VWS V14.01,2013-04-20 20:13:00,
2013-04-20 16:18:00,31.0,15.4,30.30,NNW,343,10.0,14.0,52,0.00,,---,0.04,VWS V14.01,2013-04-20 20:18:00,
2013-04-20 16:23:00,31.2,16.1,30.30,NW,313,8.0,14.0,53,0.00,,---,0.04,VWS V14.01,2013-04-20 20:23:00,
2013-04-20 16:28:00,31.6,16.5,30.30,WNW,299,6.0,14.0,53,0.00,,---,0.04,VWS V14.01,2013-04-20 20:28:00,
2013-04-20 16:30:00,31.8,21.0,30.27,SW,233,2.0,12.0,64,0.00,,---,0.04,VWS V14.01,2013-04-20 20:30:00,
2013-04-20 16:33:00,32.4,17.2,30.31,North,357,2.0,8.0,53,0.00,,---,0.04,VWS V14.01,2013-04-20 20:33:00,
2013-04-20 16:38:00,33.4,19.0,30.31,NNW,329,5.0,11.0,55,0.00,,---,0.04,VWS V14.01,2013-04-20 20:38:00,
2013-04-20 16:43:00,33.8,19.4,30.31,SW,222,6.0,11.0,55,0.00,,---,0.04,VWS V14.01,2013-04-20 20:43:00,
2013-04-20 16:48:00,33.7,17.0,30.31,NNW,333,5.0,11.0,50,0.00,,---,0.04,VWS V14.01,2013-04-20 20:48:00,
2013-04-20 16:53:00,33.4,17.2,30.31,WNW,291,6.0,11.0,51,0.00,,---,0.04,VWS V14.01,2013-04-20 20:53:00,
2013-04-20 16:58:00,33.2,17.0,30.31,SW,233,2.0,11.0,51,0.00,,---,0.04,VWS V14.01,2013-04-20 20:58:00,
2013-04-20 17:00:00,31.6,17.7,30.29,WNW,289,5.0,11.0,56,0.00,,---,0.04,VWS V14.01,2013-04-20 21:00:00,
2013-04-20 17:03:00,33.2,17.0,30.32,NNW,332,8.0,11.0,51,0.00,,---,0.04,VWS V14.01,2013-04-20 21:03:00,
2013-04-20 17:08:00,32.9,16.8,30.32,WNW,292,4.0,11.0,51,0.00,,---,0.04,VWS V14.01,2013-04-20 21:08:00,
2013-04-20 17:13:00,32.9,15.9,30.32,NNW,346,3.0,13.0,49,0.00,,---,0.04,VWS V14.01,2013-04-20 21:13:00,
2013-04-20 17:18:00,32.9,14.9,30.33,NW,309,4.0,13.0,47,0.00,,---,0.04,VWS V14.01,2013-04-20 21:18:00,
2013-04-20 17:23:00,33.1,16.5,30.33,North,0,2.0,13.0,50,0.00,,---,0.04,VWS V14.01,2013-04-20 21:23:00,
2013-04-20 17:28:00,33.1,16.5,30.33,WNW,302,2.0,13.0,50,0.00,,---,0.04,VWS V14.01,2013-04-20 21:28:00,
2013-04-20 17:30:00,32.2,17.0,30.31,North,353,3.0,14.0,53,0.00,,---,0.04,VWS V14.01,2013-04-20 21:30:00,
2013-04-20 17:33:00,32.9,16.3,30.33,North,0,5.0,11.0,50,0.00,,---,0.04,VWS V14.01,2013-04-20 21:33:00,
2013-04-20 17:38:00,31.9,15.4,30.33,NW,312,7.0,11.0,50,0.00,,---,0.04,VWS V14.01,2013-04-20 21:38:00,
2013-04-20 17:43:00,31.9,15.4,30.33,ESE,114,0.0,11.0,50,0.00,,---,0.04,VWS V14.01,2013-04-20 21:43:00,
2013-04-20 17:48:00,32.7,16.1,30.34,SW,234,2.0,11.0,50,0.00,,---,0.04,VWS V14.01,2013-04-20 21:48:00,
2013-04-20 17:53:00,32.9,16.3,30.34,North,0,5.0,12.0,50,0.00,,---,0.04,VWS V14.01,2013-04-20 21:53:00,
2013-04-20 17:58:00,32.9,16.3,30.34,WSW,256,1.0,12.0,50,0.00,,---,0.04,VWS V14.01,2013-04-20 21:58:00,
2013-04-20 18:00:00,33.4,17.2,30.32,NNW,330,5.0,11.0,51,0.00,,---,0.04,VWS V14.01,2013-04-20 22:00:00,
2013-04-20 18:03:00,33.2,16.1,30.35,WNW,284,3.0,7.0,49,0.00,,---,0.04,VWS V14.01,2013-04-20 22:03:00,
2013-04-20 18:08:00,33.1,16.5,30.35,North,0,1.0,7.0,50,0.00,,---,0.04,VWS V14.01,2013-04-20 22:08:00,
2013-04-20 18:13:00,33.1,16.5,30.35,NNW,335,5.0,10.0,50,0.00,,---,0.04,VWS V14.01,2013-04-20 22:13:00,
2013-04-20 18:19:00,32.9,16.8,30.35,North,0,6.0,10.0,51,0.00,,---,0.04,VWS V14.01,2013-04-20 22:19:00,
2013-04-20 18:24:00,33.2,16.6,30.35,West,277,6.0,10.0,50,0.00,,---,0.04,VWS V14.01,2013-04-20 22:24:00,
2013-04-20 18:29:00,33.2,16.1,30.35,NNW,339,11.0,11.0,49,0.00,,---,0.04,VWS V14.01,2013-04-20 22:29:00,
2013-04-20 18:30:00,33.2,16.6,30.33,North,0,6.0,13.0,50,0.00,,---,0.04,VWS V14.01,2013-04-20 22:30:00,
2013-04-20 18:34:00,32.8,14.8,30.35,North,349,3.0,10.0,47,0.00,,---,0.04,VWS V14.01,2013-04-20 22:34:00,
2013-04-20 18:39:00,32.7,15.7,30.35,SW,222,5.0,10.0,49,0.00,,---,0.04,VWS V14.01,2013-04-20 22:39:00,
2013-04-20 18:44:00,32.8,16.7,30.35,WSW,254,5.0,10.0,51,0.00,,---,0.04,VWS V14.01,2013-04-20 22:44:00,
2013-04-20 18:49:00,32.8,16.7,30.36,SSW,199,0.0,10.0,51,0.00,,---,0.04,VWS V14.01,2013-04-20 22:49:00,
2013-04-20 18:54:00,32.8,15.8,30.36,NW,305,1.0,10.0,49,0.00,,---,0.04,VWS V14.01,2013-04-20 22:54:00,
2013-04-20 18:59:00,32.5,15.5,30.36,West,261,1.0,10.0,49,0.00,,---,0.04,VWS V14.01,2013-04-20 22:59:00,
2013-04-20 19:00:00,32.9,16.3,30.35,WNW,299,1.0,12.0,50,0.00,,---,0.04,VWS V14.01,2013-04-20 23:00:00,
2013-04-20 19:04:00,32.2,15.7,30.37,SSE,167,3.0,6.0,50,0.00,,---,0.04,VWS V14.01,2013-04-20 23:04:00,
2013-04-20 19:09:00,31.8,14.8,30.37,NW,308,7.0,11.0,49,0.00,,---,0.04,VWS V14.01,2013-04-20 23:09:00,
2013-04-20 19:14:00,31.3,14.8,30.37,NW,326,1.0,11.0,50,0.00,,---,0.04,VWS V14.01,2013-04-20 23:14:00,
2013-04-20 19:19:00,31.0,15.4,30.37,SE,143,2.0,11.0,52,0.00,,---,0.04,VWS V14.01,2013-04-20 23:19:00,
2013-04-20 19:24:00,30.7,16.5,30.37,WSW,247,2.0,11.0,55,0.00,,---,0.04,VWS V14.01,2013-04-20 23:24:00,
2013-04-20 19:29:00,30.7,14.7,30.37,WNW,296,5.0,11.0,51,0.00,,---,0.04,VWS V14.01,2013-04-20 23:29:00,
2013-04-20 19:30:00,33.1,16.0,30.35,NNW,335,7.0,11.0,49,0.00,,---,0.04,VWS V14.01,2013-04-20 23:30:00,
2013-04-20 19:34:00,30.6,15.1,30.37,West,260,0.0,5.0,52,0.00,,---,0.04,VWS V14.01,2013-04-20 23:34:00,
2013-04-20 19:39:00,30.4,14.9,30.37,WNW,285,0.0,6.0,52,0.00,,---,0.04,VWS V14.01,2013-04-20 23:39:00,
2013-04-20 19:44:00,30.3,15.2,30.37,NW,311,3.0,6.0,53,0.00,,---,0.04,VWS V14.01,2013-04-20 23:44:00,
2013-04-20 19:49:00,30.1,14.6,30.38,NNW,344,2.0,6.0,52,0.00,,---,0.04,VWS V14.01,2013-04-20 23:49:00,
2013-04-20 19:54:00,30.0,14.5,30.38,WSW,257,0.0,6.0,52,0.00,,---,0.04,VWS V14.01,2013-04-20 23:54:00,
2013-04-20 19:59:00,29.8,14.8,30.38,WNW,301,3.0,6.0,53,0.00,,---,0.04,VWS V14.01,2013-04-20 23:59:00,
2013-04-20 20:00:00,32.4,15.4,30.37,SW,226,6.0,10.0,49,0.00,,---,0.04,VWS V14.01,2013-04-21 00:00:00,
2013-04-20 20:04:00,29.7,14.2,30.38,WNW,284,2.0,2.0,52,0.00,,---,0.04,VWS V14.01,2013-04-21 00:04:00,
2013-04-20 20:09:00,29.7,14.7,30.38,WNW,284,0.0,2.0,53,0.00,,---,0.04,VWS V14.01,2013-04-21 00:09:00,
2013-04-20 20:14:00,29.4,15.7,30.38,WNW,284,0.0,2.0,56,0.00,,---,0.04,VWS V14.01,2013-04-21 00:14:00,
2013-04-20 20:19:00,29.3,15.1,30.39,WNW,284,0.0,2.0,55,0.01,,---,0.05,VWS V14.01,2013-04-21 00:19:00,
2013-04-20 20:24:00,29.1,14.5,30.39,WNW,284,1.0,2.0,54,0.01,,---,0.05,VWS V14.01,2013-04-21 00:24:00,
2013-04-20 20:29:00,28.8,14.3,30.39,WNW,284,0.0,2.0,54,0.01,,---,0.05,VWS V14.01,2013-04-21 00:29:00,
2013-04-20 20:30:00,30.7,14.7,30.37,WSW,251,0.0,11.0,51,0.00,,---,0.04,VWS V14.01,2013-04-21 00:30:00,
2013-04-20 20:34:00,28.7,15.4,30.40,WNW,284,0.0,1.0,57,0.01,,---,0.05,VWS V14.01,2013-04-21 00:34:00,
2013-04-20 20:39:00,28.5,15.2,30.40,WNW,284,0.0,1.0,57,0.01,,---,0.05,VWS V14.01,2013-04-21 00:39:00,
2013-04-20 20:44:00,28.2,15.3,30.40,WNW,284,0.0,1.0,58,0.01,,---,0.05,VWS V14.01,2013-04-21 00:44:00,
2013-04-20 20:49:00,28.1,16.4,30.40,WNW,284,0.0,1.0,61,0.01,,---,0.05,VWS V14.01,2013-04-21 00:49:00,
2013-04-20 20:54:00,27.9,15.8,30.40,WNW,284,0.0,1.0,60,0.01,,---,0.05,VWS V14.01,2013-04-21 00:54:00,
2013-04-20 20:59:00,27.6,17.0,30.41,WNW,284,0.0,1.0,64,0.01,,---,0.05,VWS V14.01,2013-04-21 00:59:00,
2013-04-20 21:00:00,29.8,14.8,30.38,WNW,301,0.0,6.0,53,0.00,,---,0.04,VWS V14.01,2013-04-21 01:00:00,
2013-04-20 21:04:00,27.5,16.6,30.41,WNW,284,0.0,0.0,63,0.01,,---,0.05,VWS V14.01,2013-04-21 01:04:00,
2013-04-20 21:09:00,27.3,16.0,30.41,WNW,284,0.0,0.0,62,0.01,,---,0.05,VWS V14.01,2013-04-21 01:09:00,
2013-04-20 21:14:00,27.2,15.9,30.42,WNW,284,0.0,0.0,62,0.01,,---,0.05,VWS V14.01,2013-04-21 01:14:00,
2013-04-20 21:19:00,27.0,16.1,30.42,WNW,284,0.0,0.0,63,0.01,,---,0.05,VWS V14.01,2013-04-21 01:19:00,
2013-04-20 21:24:00,27.0,15.4,30.42,WNW,284,0.0,0.0,61,0.01,,---,0.05,VWS V14.01,2013-04-21 01:24:00,
2013-04-20 21:29:00,27.0,15.4,30.42,WNW,284,0.0,0.0,61,0.01,,---,0.05,VWS V14.01,2013-04-21 01:29:00,
2013-04-20 21:30:00,28.8,14.3,30.40,WNW,284,0.0,2.0,54,0.01,,---,0.05,VWS V14.01,2013-04-21 01:30:00,
2013-04-20 21:34:00,27.2,14.8,30.42,WNW,284,0.0,0.0,59,0.00,,---,0.05,VWS V14.01,2013-04-21 01:34:00,
2013-04-20 21:40:00,27.2,14.8,30.42,WNW,284,0.0,0.0,59,0.00,,---,0.05,VWS V14.01,2013-04-21 01:40:00,
2013-04-20 21:45:00,27.0,14.6,30.43,WNW,284,0.0,0.0,59,0.00,,---,0.05,VWS V14.01,2013-04-21 01:45:00,
2013-04-20 21:50:00,27.0,15.4,30.43,WNW,284,0.0,0.0,61,0.00,,---,0.05,VWS V14.01,2013-04-21 01:50:00,
2013-04-20 21:55:00,26.9,15.3,30.43,WNW,284,0.0,0.0,61,0.00,,---,0.05,VWS V14.01,2013-04-21 01:55:00,
2013-04-20 22:00:00,26.7,15.1,30.44,WNW,284,0.0,0.0,61,0.00,,---,0.05,VWS V14.01,2013-04-21 02:00:00,
2013-04-20 22:05:00,26.6,15.4,30.44,WNW,284,0.0,0.0,62,0.00,,---,0.05,VWS V14.01,2013-04-21 02:05:00,
2013-04-20 22:10:00,26.3,15.8,30.44,WNW,284,0.0,0.0,64,0.00,,---,0.05,VWS V14.01,2013-04-21 02:10:00,
2013-04-20 22:15:00,26.1,16.0,30.44,WNW,284,0.0,0.0,65,0.00,,---,0.05,VWS V14.01,2013-04-21 02:15:00,
2013-04-20 22:20:00,26.0,15.9,30.44,WNW,284,0.0,0.0,65,0.00,,---,0.05,VWS V14.01,2013-04-21 02:20:00,
2013-04-20 22:25:00,26.0,15.9,30.44,WNW,284,0.0,0.0,65,0.00,,---,0.05,VWS V14.01,2013-04-21 02:25:00,
2013-04-20 22:30:00,25.8,15.7,30.45,WNW,284,0.0,0.0,65,0.00,,---,0.05,VWS V14.01,2013-04-21 02:30:00,
2013-04-20 22:35:00,25.8,17.0,30.45,WNW,284,0.0,0.0,69,0.00,,---,0.05,VWS V14.01,2013-04-21 02:35:00,
2013-04-20 22:40:00,25.8,16.7,30.45,WNW,284,0.0,0.0,68,0.00,,---,0.05,VWS V14.01,2013-04-21 02:40:00,
2013-04-20 22:45:00,25.7,17.6,30.46,WNW,284,0.0,0.0,71,0.00,,---,0.05,VWS V14.01,2013-04-21 02:45:00,
2013-04-20 22:50:00,25.4,17.0,30.46,WNW,284,0.0,0.0,70,0.00,,---,0.05,VWS V14.01,2013-04-21 02:50:00,
2013-04-20 22:55:00,25.1,18.0,30.46,WNW,284,0.0,0.0,74,0.00,,---,0.05,VWS V14.01,2013-04-21 02:55:00,
2013-04-20 23:00:00,24.8,17.4,30.46,WNW,284,0.0,0.0,73,0.00,,---,0.05,VWS V14.01,2013-04-21 03:00:00,
2013-04-20 23:05:00,24.7,17.3,30.46,WNW,284,0.0,0.0,73,0.00,,---,0.05,VWS V14.01,2013-04-21 03:05:00,
2013-04-20 23:10:00,24.5,16.8,30.46,WNW,284,0.0,0.0,72,0.00,,---,0.05,VWS V14.01,2013-04-21 03:10:00,
2013-04-20 23:15:00,24.5,16.8,30.46,WNW,284,0.0,0.0,72,0.00,,---,0.05,VWS V14.01,2013-04-21 03:15:00,
2013-04-20 23:20:00,24.5,16.5,30.46,WNW,284,0.0,0.0,71,0.00,,---,0.05,VWS V14.01,2013-04-21 03:20:00,
2013-04-20 23:25:00,24.7,16.0,30.46,WNW,284,0.0,0.0,69,0.00,,---,0.05,VWS V14.01,2013-04-21 03:25:00,
2013-04-20 23:30:00,24.7,16.3,30.47,WNW,284,0.0,0.0,70,0.00,,---,0.05,VWS V14.01,2013-04-21 03:30:00,
2013-04-20 23:35:00,24.7,16.6,30.47,WNW,284,0.0,0.0,71,0.00,,---,0.05,VWS V14.01,2013-04-21 03:35:00,
2013-04-20 23:40:00,24.5,16.8,30.47,WNW,284,0.0,0.0,72,0.00,,---,0.05,VWS V14.01,2013-04-21 03:40:00,
2013-04-20 23:45:00,24.4,17.6,30.47,WNW,284,0.0,0.0,75,0.00,,---,0.05,VWS V14.01,2013-04-21 03:45:00,
2013-04-20 23:50:00,24.1,17.6,30.47,WNW,284,0.0,0.0,76,0.00,,---,0.05,VWS V14.01,2013-04-21 03:50:00,
2013-04-20 23:55:00,23.8,17.7,30.47,WNW,284,0.0,0.0,77,0.00,,---,0.05,VWS V14.01,2013-04-21 03:55:00,